Regional Weather Roundup
Issued by NWS

Home | Current Version | Previous Version | Text Only | Print | Product List | Glossary Off
Versions: 1 2 3 4 5 6 7 8 9 10 11 12 13 14 15 16 17 18 19 20 21 22 23 24 25 26 27 28 29 30 31 32 33 34 35 36 37 38 39 40 41 42 43 44 45 46 47 48 49 50

000
ASUS45 KBOI 040410
RWRID

IDAHO REGIONAL WEATHER ROUNDUP
NATIONAL WEATHER SERVICE BOISE ID
1000 PM MDT TUE MAY 03 2016

NOTE: "FAIR" INDICATES FEW OR NO CLOUDS BELOW 12000 FEET
WITH NO SIGNIFICANT WEATHER AND/OR OBSTRUCTIONS TO VISIBILITY

IDZ012-014-040500-
SOUTHWEST IDAHO


CITY           SKY/WX    TMP DP  RH WIND       PRES   REMARKS
BOISE          CLEAR     69  32  25 E8        30.01R
CALDWELL       CLEAR     65  38  36 E7        29.99R
MOUNTAIN HOME  PTCLDY    63  37  37 E10       30.02R
$$

IDZ016-017-040500-
SOUTHCENTRAL IDAHO


CITY           SKY/WX    TMP DP  RH WIND       PRES   REMARKS
BURLEY         CLEAR     56  41  57 SE3       30.10R
JEROME         CLEAR     60  31  33 E12       30.10R
TWIN FALLS     CLEAR     58  28  32 SE15      30.09R
$$

IDZ019>023-040500-
SOUTHEAST IDAHO


CITY           SKY/WX    TMP DP  RH WIND       PRES   REMARKS
IDAHO FALLS    CLEAR     56  34  43 CALM      30.17R
POCATELLO      CLEAR     55  40  56 E3        30.16R
REXBURG        CLEAR     59  31  34 CALM      30.17R
$$

IDZ006-010-011-018-031-032-040500-
CENTRAL IDAHO MOUNTAINS


CITY           SKY/WX    TMP DP  RH WIND       PRES   REMARKS
MCCALL         CLEAR     53  37  54 N3        30.12R
HAILEY         CLEAR     52  34  50 NW8       30.20R
STANLEY          N/A     47  26  44 SE7       30.22R
SALMON         CLEAR     55  36  47 S3        30.04R
CHALLIS        CLEAR     61  22  22 S10       30.12R
$$

IDZ002-004-006-007-026-040500-
NORTHERN IDAHO


CITY           SKY/WX    TMP DP  RH WIND       PRES   REMARKS
LEWISTON       PTCLDY    73  45  36 SE3       29.91R
LOWELL           N/A     59  52  77 CALM      29.96R
COEUR D`ALENE  PTCLDY    64  43  45 CALM      29.94R
MULLAN PASS    CLEAR     57  29  34 NW7       30.14S
$$



USA.gov is the U.S. government's official web portal to all federal, state and local government web resources and services.